Regional Weather Roundup
Issued by NWS

Home | Current Version | Previous Version | Graphics & Text | Print | Product List | Glossary On
Versions: 1 2 3 4 5 6 7 8 9 10 11 12 13 14 15 16 17 18 19 20 21 22 23 24 25 26 27 28 29 30 31 32 33 34 35 36 37 38 39 40 41 42 43 44 45 46 47 48 49 50
158
ASUS45 KBOI 290610
RWRID

IDAHO REGIONAL WEATHER ROUNDUP
NATIONAL WEATHER SERVICE BOISE ID
1200 AM MDT MON MAY 29 2017

NOTE: "FAIR" INDICATES FEW OR NO CLOUDS BELOW 12000 FEET
WITH NO SIGNIFICANT WEATHER AND/OR OBSTRUCTIONS TO VISIBILITY

IDZ012-014-290700-
SOUTHWEST IDAHO


CITY           SKY/WX    TMP DP  RH WIND       PRES   REMARKS
BOISE          CLEAR     65  42  43 SE3       30.08S
CALDWELL       CLEAR     64  42  44 CALM      30.07S
MOUNTAIN HOME  CLEAR     60  35  38 S3        30.09R
$$

IDZ016-017-290700-
SOUTHCENTRAL IDAHO


CITY           SKY/WX    TMP DP  RH WIND       PRES   REMARKS
BURLEY         CLEAR     55  43  63 CALM      30.15S
JEROME         CLEAR     58  39  49 SE6       30.16S
TWIN FALLS     CLEAR     54  43  66 S9        30.15F
$$

IDZ019>023-290700-
SOUTHEAST IDAHO


CITY           SKY/WX    TMP DP  RH WIND       PRES   REMARKS
IDAHO FALLS    CLEAR     51  45  79 NE3       30.21S
POCATELLO      CLEAR     48  40  73 CALM      30.18F
REXBURG        PTCLDY    53  42  66 N8        30.22R
$$

IDZ006-010-011-018-031-032-290700-
CENTRAL IDAHO MOUNTAINS


CITY           SKY/WX    TMP DP  RH WIND       PRES   REMARKS
MCCALL         CLEAR     56  35  45 N7        30.20S
HAILEY         CLEAR     52  43  71 NW7       30.25S
STANLEY          N/A     41  32  70 S5        30.30R
SALMON         CLEAR     54  39  58 SW5       30.15S
CHALLIS        CLEAR     53  38  56 CALM      30.20R
$$

IDZ002-004-006-007-026-290700-
NORTHERN IDAHO


CITY           SKY/WX    TMP DP  RH WIND       PRES   REMARKS
LEWISTON       CLEAR     69  50  50 S6        30.03R
LOWELL           N/A     57  49  74 N3        30.09R
COEUR D`ALENE  CLEAR     63  53  70 SE5       30.08S
MULLAN PASS    CLEAR     58  33  39 SE5       30.27S
$$




USA.gov is the U.S. government's official web portal to all federal, state and local government web resources and services.